This demonstration page uses our WeatherBlox Daily Observations layout. Learn more.

Left ArrowRight Arrow

30.21309, -93.2044

Hourly Observations for July 26, 2019

Temp ( °F °C ) Dew Point ( °F °C ) Humidity (%) Winds ( mph kmh ) Pressure ( in mb ) Visibility ( mi km ) Precip ( " mm )
12:15 am 00:15 Clear 74 23.2 67 19.3 79 79 NNE 12 19 30.06 1018 10 16 0.00 0.00
12:35 am 00:35 Clear 73 23 67 19.2 79 79 NNE 13 20 30.06 1018 10 16 0.00 0.00
12:55 am 00:55 Mostly Cloudy 74 23.1 67 19.3 79 79 NNE 12 19 30.06 1018 10 16 0.00 0.00
1:15 am 01:15 Mostly Cloudy 73 23 66 19.1 79 79 NNE 8 13 30.06 1018 10 16 0.00 0.00
1:35 am 01:35 Clear 73 23 66 19.1 79 79 NE 5 7 30.06 1018 10 16 0.00 0.00
2:35 am 02:35 Clear 72 22.3 67 19.2 83 83 NE 6 9 30.06 1018 10 16 0.00 0.00
2:55 am 02:55 Partly Cloudy 73 22.5 67 19.2 82 82 NE 5 7 30.06 1018 10 16 0.00 0.00
3:15 am 03:15 Partly Cloudy 72 22.3 67 19.2 83 83 NE 6 9 30.06 1018 10 16 0.00 0.00
3:35 am 03:35 Clear 72 22 67 19.3 85 85 NE 5 7 30.06 1018 10 16 0.00 0.00
3:55 am 03:55 Clear 72 22 67 19.3 85 85 NE 3 6 30.06 1018 10 16 0.00 0.00
4:15 am 04:15 Clear 71 21.7 67 19.3 86 86 NE 3 6 30.06 1018 10 16 0.00 0.00
4:35 am 04:35 Clear 71 21.6 67 19.3 87 87 NE 5 7 30.06 1018 10 16 0.00 0.00
4:55 am 04:55 Clear 71 21.6 67 19.3 87 87 NE 5 7 30.06 1018 10 16 0.00 0.00
5:35 am 05:35 Clear 70 21.2 67 19.3 89 89 NNE 7 11 30.08 1019 10 16 0.00 0.00
6:00 am 06:00 Mostly Clear 70 21 66 19 88 88 Calm 30.08 1019 10 16 0.00 0.00
6:50 am 06:50 Mostly Sunny 70 21 66 19 88 88 VRB 6 9 30.10 1019 10 16 0.00 0.00
7:55 am 07:55 Mostly Sunny 73 23 68 20 83 83 ENE 6 9 30.11 1020 10 16 0.00 0.00
8:50 am 08:50 Mostly Sunny 77 25 70 21 79 79 ENE 6 9 30.13 1020 10 16 0.00 0.00
9:50 am 09:50 Mostly Sunny 82 28 72 22 70 70 ENE 8 13 30.13 1020 10 16 0.00 0.00
10:55 am 10:55 Mostly Sunny 84 29 70 21 62 62 E 14 22 30.13 1020 10 16 0.00 0.00
11:50 am 11:50 Mostly Sunny 88 31 70 21 55 55 ENE 8 13 30.12 1020 10 16 0.00 0.00
12:55 pm 12:55 Partly Cloudy 88 31 70 21 55 55 ENE 12 19 30.12 1020 10 16 0.00 0.00
1:55 pm 13:55 Partly Cloudy 90 32 70 21 52 52 ENE 8 13 30.10 1019 10 16 0.00 0.00
2:50 pm 14:50 Partly Cloudy 90 32 70 21 52 52 ENE 10 17 30.10 1019 10 16 0.00 0.00
3:50 pm 15:50 Partly Cloudy 90 32 70 21 52 52 ENE 7 11 30.09 1019 10 16 0.00 0.00
5:50 pm 17:50 Partly Cloudy 90 32 68 20 49 49 ENE 12 19 30.07 1018 10 16 0.00 0.00
5:55 pm 17:55 Partly Cloudy 91 33 70 21 49 49 ENE 7 11 30.07 1018 10 16 0.00 0.00
6:40 pm 18:40 Partly Cloudy 88 31 68 20 52 52 ENE 8 13 30.07 1018 10 16 0.00 0.00
6:45 pm 18:45 Partly Cloudy 88 31 68 20 52 52 ENE 8 13 30.07 1018 10 16 0.00 0.00
7:55 pm 19:55 Partly Cloudy 86 30 70 21 59 59 ENE 8 13 30.08 1019 10 16 0.00 0.00
8:47 pm 20:47 Partly Cloudy 82 28 72 22 70 70 ENE 6 9 30.09 1019 10 16 0.00 0.00
9:50 pm 21:50 Mostly Clear 79 26 73 23 84 84 E 3 6 30.10 1019 10 16 0.00 0.00
10:15 pm 22:15 Mostly Cloudy 79 26 74 23.5 86 86 E 3 6 30.10 1019 10 16 0.00 0.00
10:35 pm 22:35 Partly Cloudy 78 25.7 74 23.3 87 87 ENE 3 6 30.11 1020 10 16 0.00 0.00
10:55 pm 22:55 Clear 78 25.8 74 23.1 85 85 ENE 3 6 30.11 1020 10 16 0.00 0.00
11:15 pm 23:15 Clear 77 25.2 74 23.1 88 88 E 5 7 30.11 1020 10 16 0.00 0.00
11:35 pm 23:35 Clear 76 24.6 73 23 91 91 ESE 5 7 30.11 1020 10 16 0.00 0.00
11:55 pm 23:55 Clear 76 24.5 73 23 91 91 E 6 9 30.11 1020 10 16 0.00 0.00

Powered by AerisWeather